Location: Slidell
(30.2789°N, 89.7378°W)
Time: 17:30:32
(UTC-05:00)

Cosmos 2360 Rocket - Visible Passes

Search period start: 24 April 2018 00:00
Search period end: 04 May 2018 00:00
Orbit: 835 x 844 km, 71.0° (Epoch: 24 April)

Date Brightness Start Highest point End Pass type
(mag) Time Alt. Az. Time Alt. Az. Time Alt. Az.
24 Apr 2.8 04:46:35 10° N 04:52:07 58° ENE 04:57:38 10° SSE visible
25 Apr 2.9 04:30:55 10° N 04:36:25 53° ENE 04:41:54 10° SE visible
26 Apr 3.0 04:15:16 10° N 04:20:43 49° ENE 04:26:09 10° SE visible
27 Apr 3.1 03:59:38 10° N 04:05:01 46° ENE 04:10:24 10° SE visible
27 Apr 3.5 05:44:57 10° WNW 05:48:33 18° W 05:52:08 10° SW visible
28 Apr 3.3 03:43:59 10° N 03:49:19 43° ENE 03:54:38 10° SE visible
28 Apr 3.4 05:29:04 10° WNW 05:32:54 19° W 05:36:43 10° SW visible
29 Apr 3.4 03:28:21 10° N 03:33:37 40° ENE 03:38:39 11° SE visible
29 Apr 3.3 05:13:12 10° NW 05:17:14 21° W 05:20:00 15° SW visible
30 Apr 3.5 03:12:43 10° N 03:17:54 37° ENE 03:19:43 29° ESE visible
30 Apr 3.3 04:57:20 10° NW 05:01:18 22° W 05:01:18 22° W visible
01 May 3.5 02:57:06 10° N 03:02:12 34° ENE 03:02:27 34° ENE visible
01 May 3.6 04:41:30 10° NW 04:44:06 20° WNW 04:44:06 20° WNW visible
02 May 3.8 02:41:30 10° N 02:45:46 31° NE 02:45:46 31° NE visible
02 May 3.8 04:25:41 10° NW 04:27:27 18° WNW 04:27:27 18° WNW visible
03 May 4.0 02:25:53 10° N 02:29:23 27° NE 02:29:23 27° NE visible
03 May 4.1 04:09:53 10° NW 04:11:05 15° NW 04:11:05 15° NW visible
